{"data":{"norad_id":65712,"epoch":"2026-09-19T13:35:26.010528Z","epoch_age_seconds":230415,"freshness":"STALE","line1":"1 65712U 25214A   26262.56627327  .00001284  00000+0  14504-3 0  9992","line2":"2 65712  49.9864 210.0704 0013195 259.1633 100.7825 14.93167348 53800","mean_motion":14.93167348,"eccentricity":0.0013195,"inclination_deg":49.9864,"raan_deg":210.0704,"arg_perigee_deg":259.1633,"mean_anomaly_deg":100.7825,"bstar":0.00014504,"rev_number":5380,"period_min":96.439290741844,"perigee_km":578.87504222889,"apogee_km":597.25885444856,"semimajor_km":6966.2039483387,"source":"CELESTRAK","updated_at":"2026-09-21T09:00:15.521511Z"}}